339  
ASHW40 PHFO 011430  
RWRHI  
 
WEATHER ROUNDUP FOR HAWAII  
NATIONAL WEATHER SERVICE HONOLULU HI  
400 AM HST SUN FEB 01 2015  
 
THIS IS AN AUTOMATED REPORT THAT HAS NOT BEEN QUALITY CONTROLLED.  
 
NOTE..."FAIR" INDICATES FEW OR NO CLOUDS BELOW 12,000 FEET WITH NO  
SIGNIFICANT WEATHER AND/OR S TO VISIBILITY
.  
 
* - THESE SITES REPORT LIMITED FIELDS  
 
HIZ001>004-011500-  
KAUAI-NIIHAU-  
 
CITY SKY/WX TMP DP RH WIND PRES REMARKS
 
LIHUE APT MOCLDY 66 58 75 W7 30.00F  
PORT ALLEN* N/A 64 N/A N/A N7 N/A  
POIPU* N/A 66 N/A N/A N2 N/A  
PRINCEVILLE* N/A 63 N/A N/A MISG N/A  
KOKOLE POINT* NOT AVBL  
MOLOAA DAIRY* NOT AVBL  
WAIMEA HTS* NOT AVBL  
PUU OPAE* NOT AVBL  
PUU LUA* NOT AVBL  
MAKAHA RIDGE* NOT AVBL  

 
 
HIZ005>011-011500-  
OAHU-  
 
CITY SKY/WX TMP DP RH WIND PRES REMARKS
 
HONOLULU PTCLDY 70 63 78 N3 29.97F  
KALAELOA CLOUDY 70 61 73 CALM 29.99F  
KANEOHE MCB MOCLDY 70 63 78 W3 29.96F  
WHEELER FIELD FAIR 63 60 88 NW5 30.00F  
BELLOWS* N/A N/A N/A N/A W5 N/A  
KAHUKU* N/A N/A N/A N/A SE1 N/A  
WHEELER* NOT AVBL  
WAIANAE HARBOR NOT AVBL  
DILLINGHAM* N/A 68 61 77 MISG N/A  
KAHUKU TRN* N/A 64 61 88 SE3 N/A  
KAWAILOA* N/A 64 59 82 E3G12 N/A  
KII* N/A 66 63 88 CALM N/A  
MAKUA RANGE* N/A 72 59 64 E8G15 N/A  
OAHU FOREST NW NOT AVBL  
SCHOFIELD BRK* N/A 61 57 88 MISG N/A  
SCHOFIELD S* NOT AVBL  
WAIANAE VLY* NOT AVBL  
KUAOKALA* NOT AVBL  
HONOULIUULI* NOT AVBL  
MOKUOLOE IS* NOT AVBL  
PALEHUA* NOT AVBL  
WAIAWA PHB* NOT AVBL  

 
 
HIZ012>013-011500-  
MOLOKAI-  
 
CITY SKY/WX TMP DP RH WIND PRES REMARKS
 
MOLOKAI AIRPT MOCLDY 66 66 100 N9 30.00S  
KALAUPAPA NOT AVBL  
MAKAPULAPAI* NOT AVBL  
MOLOKAI 1* NOT AVBL  
PUU ALII* N/A 55 55 100 E1 N/A  

 
 
HIZ016-011500-  
KAHOOLAWE-  
 
CITY SKY/WX TMP DP RH WIND PRES REMARKS
 
KAHOOLAWE* NOT AVBL  
HAKIOAWA* N/A 68 68 100 MISG N/A  
HONOKANAIA* N/A 72 67 86 VRB10G17 29.96F  
KANELOA* N/A 72 68 88 MISG N/A  
KEALIALALO* NOT AVBL  
LUA MAKIKA* NOT AVBL  

 
 
HIZ014>015-011500-  
LANAI-  
 
CITY SKY/WX TMP DP RH WIND PRES REMARKS
 
LANAI CITY FAIR 63 63 100 N5 30.03S  
LANAI 1* NOT AVBL  

 
 
HIZ017>028-011500-  
MAUI-  
 
CITY SKY/WX TMP DP RH WIND PRES REMARKS
 
KAHULUI LGT RAIN 71 68 90 SW3 29.97F  
KAPALUA-W MAUI NOT AVBL  
HANA AIRPORT MOCLDY 64 64 100 CALM 29.99S FOG  
HANA* N/A 66 N/A N/A SW3 N/A  
HALEAKALA SUMM N/A 41 0 17 W13G26 N/A  
MAALAEA BAY* NOT AVBL  
HALEAKALA* NOT AVBL  
KAUPO GAP* NOT AVBL  
KULA 1* N/A N/A N/A N/A CALM N/A  

 
 
HIZ023>026-011500-  
BIG ISLAND OF HAWAII COAST AND LOWER SLOPES-  
 
CITY SKY/WX TMP DP RH WIND PRES REMARKS
 
KAILUA KONA MOCLDY 71 64 78 NE7 29.95F  
HILO CLOUDY 71 67 87 SW5 29.96F  
HONOKAA* NOT AVBL  
KAWAIHAE MWT* N/A 70 N/A N/A NE2 N/A  
KAWAIHAE* N/A 72 N/A N/A NE2 N/A  
SOUTH POINT* N/A 66 N/A N/A NE7 N/A  
UPOLU AIRPORT* N/A N/A N/A N/A SE1 N/A  
KAMUELA* NOT AVBL  
HAKALAU* N/A N/A N/A N/A W6 N/A  
KALOKO-HONOKO* N/A 70 59 68 NE5 29.95R  
PALI 2* N/A N/A N/A N/A E3 N/A  
KEALAKOMO* N/A 72 68 88 NE6 N/A  
KAUPULEHU* NOT AVBL  
KAPAPALA* N/A 63 62 96 CALM N/A  
LOWER KAHUKU* N/A 61 59 94 N2G8 N/A  
PUHE CS* N/A 68 59 73 NE3 N/A  
PUHO CS* N/A 70 53 54 E2 N/A  
PTA KEAMUKU* N/A 52 46 82 CALM N/A  
WAIKOLOA* NOT AVBL  

 
 
HIZ027>028-011500-  
BIG ISLAND OF HAWAII INTERIOR AND SUMMMITS-  
 
CITY SKY/WX TMP DP RH WIND PRES REMARKS
 
BRADSHAW FIELD CLOUDY 39 19 44 SE6 30.26F  
MK VISITOR CEN NOT AVBL  
MAUNA KEA* N/A 30 -13 15 NW33 N/A WCI 14  
MAUNA LOA* N/A 39 -11 11 MISG N/A  
MAUNA LOA 1* NOT AVBL  
PTA KIPUKA* N/A N/A N/A N/A SE3 N/A  
PTA RANGE 17* N/A N/A N/A N/A E8 N/A  
PTA WEST* N/A 45 36 70 SE13 N/A  
NENE CABIN* N/A N/A N/A N/A VRB5 N/A  
AHUMOA* NOT AVBL  
PTA PORTABLE* NOT AVBL  
PUU MALI* NOT AVBL  

 
 
HIC003-011500-  
NORTHWEST ISLANDS-  
 
CITY SKY/WX TMP DP RH WIND PRES REMARKS
 
MIDWAY ISLAND CLEAR 63 57 82 SE18 29.90F  
MIDWAY NOS* NOT AVBL  
FRENCH FRIGATE NOT AVBL  

 
 
PHZ110>124-180-011500-  
BUOY REPORTS  
 
STATION/POSITION TIME TEMP WIND PRES WAVE SWELL
 
AIR SEA DIR/SP/G HT/PER HT/DIR  
(UTC) (F) (DEG/KT/KT) (MB) (FT/S) (FT/D)  
BUOY 51001 NOT AVBL  
BUOY 51101 1400 68 73 30/ 4/ 8 1016.1F 8/13  
BUOY 51100 1300 72 76 20/ 12/ 14 1015.4F  
BUOY 51003 1400 76 78 70/ 14/ 17 1013.4F 10/15 8  
BUOY 51004 1327 76 78 80/ 14/ 16 1014.2F 8/ 9 7/110  
BARBERS PT BUOY NOT AVBL  
WAIMEA BAY BUOY 1400 77 N/A 8/13  
KAILUA BAY BUOY 1400 77 N/A 8/14 7/360  
LANAI BUOY 1400 77 N/A 4/13 3/300  
BARBERS PT 2 1400 76 N/A 5/13 3/310  
PAUWELA MAUI 1400 76 N/A 8/14  
HILO 1400 76 N/A 9/12 7/350  
KANEOHE BAY BUOY 1400 76 N/A 6/14 5/360  
HANALEI KAUAI NOT AVBL  
KAHULUI HARBOR 1400 71 77 290/ 4/ 7 1014.8S  
HONOLULU HARBOR 1400 72 77 50/ 5/ 7 1015.0R  
KILO NALU NOT AVBL  
HILO HARBOR 1400 72 77 200/ 4/ 6 1013.9F  
MOKUOLOE 1400 76 1015.3F  
NAWILIWILI 1400 75 N/A  
WHOTS BUOY NOT AVBL  
BUOY 51028 NOT AVBL  

 
   
.....................KEY.....................................
 
 
SKY/WX - SKY CONDITIONS/PRESENT WEATHER  
TMP - TEMPERATURE IN FAHRENHEIT  
DWPT - DEWPOINT IN FAHRENHEIT  
RH - RELATIVE HUMIDITY IN PERCENT  
WIND - DIRECTION AND SPEED /MPH FOR ISLANDS...KTS FOR BUOYS/  
PRES - MEAN SEA LEVEL PRESSURE IN INCHES OF HG  
VSB - VISIBILITY IN MILES  
HX - HEAT INDEX  
WCI - WIND CHILL INDEX  
VRB - VARIABLE WIND DIRECTION  
N/A - NOT AVAILABLE  
 
CLICK HERE TO GO TO PREVIOUS BULLETINS.

The Nexlab HI Page Main Text Page